Content
SEND FEEDBACK

Daily
Averages
Monthly
Summary
France

AVIGNON, FRANCE


Home > Europe > France
Elevation: 187 feet     Latitude: 44 00N     Longitude: 004 45E

WEATHER
 
SELECT A DAY
Number of Records: 167,671;   Date Range: 5/17/04 - 8/31/14
 
SHARE

PRINT THIS DATA

[ ← Previous Day ]
WEATHER ALMANAC - APRIL 3, 2013
[ Next Day → ]
[ °C ]   °F
Weather ElementAverageHighLow
Temperature52.5 °F64.4 °F (4:30 pm)44.6 °F (4:30 am)
Dewpoint37.2 °F44.6 °F (12:30 am)33.8 °F (7:30 am)
Humidity58.4 %82 % (12:30 am)34 % (3:30 pm)
Barometer29.69 in29.71 in (2:30 am)29.65 in (3:00 pm)
Wind Speed8.6 mph17.3 mph (11:30 am)
Weather ElementAverage
Visibility6.2 mi
Wind DirectionW (273.6 °)

Weather ElementTotal
Precipitation---
Heating Degree Days10.5 (Base 65)
Growing Degree Days4.5 (Base 50)
Averaged from 47 records on April 3, 2013
WEATHER CONDITIONS BREAKOUT
WIND DIRECTION BREAKOUT
WEATHER BY HOUR - APRIL 3, 2013
[ °C ]   °F
Local TimeTemperatureDewpointHumidityBarometerVisibilityWind DirectionWind SpeedGust SpeedPrecipitationEventsConditions
12:30 AM50.0 °F44.6 °F82 %29.68 in6.2 miNW (310°)5.8 mph
1:00 AM50.0 °F44.6 °F82 %29.68 in6.2 miNW (320°)8.1 mph
1:30 AM50.0 °F42.8 °F76 %29.68 in6.2 miNW (320°)9.2 mph
2:00 AM48.2 °F42.8 °F82 %29.68 in6.2 miWNW (300°)6.9 mph
2:30 AM48.2 °F41.0 °F76 %29.71 in6.2 miWNW (300°)5.8 mph
3:00 AM48.2 °F41.0 °F76 %29.71 in6.2 miNNW (330°)9.2 mph
3:30 AM46.4 °F37.4 °F71 %29.71 in6.2 miNNW (340°)6.9 mph
4:00 AM46.4 °F37.4 °F71 %29.71 in6.2 miNNW (340°)9.2 mph
4:30 AM44.6 °F35.6 °F71 %29.71 in6.2 miNNW (340°)6.9 mph
5:00 AM44.6 °F35.6 °F71 %29.71 in6.2 miNNW (330°)4.6 mph
5:30 AM46.4 °F37.4 °F71 %29.71 in6.2 miNNW (330°)8.1 mph
6:00 AM44.6 °F35.6 °F71 %29.71 in6.2 miNNW (330°)10.4 mph
6:30 AM46.4 °F35.6 °F66 %29.71 in6.2 miNW (310°)10.4 mph
7:00 AM46.4 °F35.6 °F66 %29.71 in6.2 miNW (310°)11.5 mph
7:30 AM44.6 °F33.8 °F66 %29.71 in6.2 miNNW (330°)11.5 mph
8:00 AM46.4 °F33.8 °F62 %29.71 in6.2 miNNW (330°)13.8 mph
8:30 AM48.2 °F33.8 °F58 %29.71 in6.2 miNNW (340°)13.8 mph
9:00 AM48.2 °F33.8 °F58 %29.71 in6.2 miNorth (350°)12.7 mph
9:30 AM50.0 °F35.6 °F58 %29.71 in6.2 miNNW (340°)12.7 mph
10:00 AM51.8 °F35.6 °F54 %29.71 in6.2 miNNW (340°)13.8 mph
10:30 AM51.8 °F33.8 °F50 %29.71 in6.2 miNNW (340°)16.1 mph
11:00 AM53.6 °F33.8 °F47 %29.71 in6.2 miNNW (340°)13.8 mph
11:30 AM55.4 °F33.8 °F44 %29.71 in6.2 miNorth (350°)17.3 mph
12:00 PM55.4 °F35.6 °F47 %29.71 in6.2 miNorth (350°)15.0 mph
12:30 PM57.2 °F35.6 °F44 %29.71 in6.2 miNNW (330°)13.8 mph
1:00 PM59.0 °F35.6 °F42 %29.68 in6.2 miNNW (340°)11.5 mph
1:30 PM59.0 °F35.6 °F42 %29.68 in6.2 miNorth (360°)10.4 mph
2:00 PM59.0 °F33.8 °F39 %29.68 in6.2 miNorth (350°)8.1 mph
2:30 PM60.8 °F33.8 °F36 %29.68 in6.2 miNW (320°)9.2 mph
3:00 PM60.8 °F33.8 °F36 %29.65 in6.2 miNNW (340°)10.4 mph
3:30 PM62.6 °F33.8 °F34 %29.65 in6.2 miNNW (330°)9.2 mph
4:00 PM62.6 °F33.8 °F34 %29.65 in6.2 miWest (280°)6.9 mph
4:30 PM64.4 °F35.6 °F34 %29.65 in6.2 miVariable3.5 mph
5:00 PM64.4 °F37.4 °F37 %29.65 in6.2 miVariable3.5 mph
5:30 PM62.6 °F35.6 °F37 %29.65 in6.2 miSW (230°)4.6 mph
6:00 PM62.6 °F39.2 °F42 %29.65 in6.2 miVariable2.3 mph
6:30 PM60.8 °F41.0 °F48 %29.65 in6.2 miSW (220°)10.4 mph
7:00 PM59.0 °F41.0 °F51 %29.65 in6.2 miSW (230°)10.4 mph
7:30 PM55.4 °F39.2 °F54 %29.65 in6.2 miWSW (240°)12.7 mph
8:00 PM53.6 °F39.2 °F58 %29.65 in6.2 miSW (220°)4.6 mph
8:30 PM53.6 °F39.2 °F58 %29.65 in6.2 miSW (220°)1.2 mph
9:00 PM50.0 °F39.2 °F66 %29.68 in6.2 miSSE (150°)3.5 mph
9:30 PM48.2 °F39.2 °F71 %29.68 in6.2 miSSE (150°)4.6 mph
10:00 PM48.2 °F39.2 °F71 %29.68 in6.2 miSSE (150°)2.3 mph
10:30 PM44.6 °F39.2 °F81 %29.68 in6.2 miSSE (150°)4.6 mph
11:00 PM46.4 °F37.4 °F71 %29.68 in6.2 miSSE (160°)2.3 mph
11:30 PM44.6 °F39.2 °F81 %29.68 in6.2 miSouth (170°)2.3 mph
Hourly data recorded from LFMV, located miles away from Avignon, France







STORIES FROM OUR PARTNERS